Topeka, KS

12:20 PM CST on December 15, 2019 (GMT -0600)
Billard Municipal

Weather History for KTOP - August, 2019

Change the Weather History Date:

Wednesday, August 14, 2019

  Actual Average Record
Temperature  
Mean Temperature 76 °F 78 °F  
Max Temperature 85 °F 89 °F 113 °F (1936)
Min Temperature 67 °F 67 °F 50 °F (2004)
Degree Days  
Heating Degree Days 0 0  
Month to date heating degree days 0 0  
Since 1 June heating degree days 0 8  
Since 1 July heating degree days 0 0  
Cooling Degree Days 11 13  
Month to date cooling degree days 188 191  
Year to date cooling degree days 1067 1033  
Since 1 June cooling degree days 955 907  
Growing Degree Days 26 (Base 50)    
Moisture  
Dew Point 64 °F    
Average Humidity 67    
Maximum Humidity 90    
Minimum Humidity 44    
Precipitation  
Precipitation 0.00 in 0.14 in 3.52 in (1947)
Month to date precipitation 2.89 1.89  
Year to date precipitation 31.75 24.22  
Snow  
Snow 0.00 in 0.00 in T in (1950)
Month to date snowfall 0.0 0.0  
Year to date snowfall 18.5 11.3  
Since 1 July snowfall 0.0 0.0  
Snow Depth 0.00 in    
Sea Level Pressure  
Sea Level Pressure 30.06 in    
Wind  
Wind Speed 4 mph (North)    
Max Wind Speed 13 mph    
Max Gust Speed 16 mph    
Visibility 10 miles    
Events      
T = Trace of Precipitation, MM = Missing Value Source: NWS Daily Summary

Daily Weather History Graph

Daily Weather History Graph

Search for Another Location

Airport or City:

Astronomy

Aug. 14, 2019 Rise Set
Actual Time 6:34 AM CDT 8:19 PM CDT
Civil Twilight 6:06 AM CDT 8:47 PM CDT
Nautical Twilight 5:31 AM CDT 9:22 PM CDT
Astronomical Twilight 4:54 AM CDT 9:59 PM CDT
Moon 8:13 PM CDT (8/14) 5:33 AM CDT (8/14)
Length of Visible Light 14h 41m
Length of Day
13h 44m
Waxing Gibbous, 99% of the Moon is Illuminated
Aug 14
Waxing Gibbous
Aug 15
Full
Aug 23
Last Quarter
Aug 30
New
Sep 5
First Quarter

Hourly Weather History & Observations

Time (CDT) Temp. Heat Index Dew Point Humidity Pressure Visibility Wind Dir Wind Speed Gust Speed Precip Events Conditions
12:53 AM 71.1 °F - 66.0 °F 84% 30.03 in 10.0 mi Calm Calm - N/A   Clear
1:53 AM 72.0 °F - 66.0 °F 81% 30.03 in 10.0 mi Calm Calm - N/A   Clear
2:53 AM 71.1 °F - 66.0 °F 84% 30.02 in 10.0 mi Calm Calm - N/A   Clear
3:53 AM 70.0 °F - 66.9 °F 90% 30.03 in 10.0 mi NW 3.5 mph - N/A   Partly Cloudy
4:53 AM 71.1 °F - 66.0 °F 84% 30.03 in 10.0 mi West 4.6 mph - N/A   Clear
5:53 AM 70.0 °F - 66.0 °F 87% 30.04 in 10.0 mi Calm Calm - N/A   Clear
6:53 AM 70.0 °F - 64.0 °F 81% 30.05 in 10.0 mi NNE 6.9 mph - N/A   Clear
7:53 AM 71.1 °F - 63.0 °F 75% 30.08 in 10.0 mi NNE 6.9 mph - N/A   Clear
8:53 AM 73.0 °F - 63.0 °F 71% 30.10 in 10.0 mi NNE 8.1 mph - N/A   Clear
9:53 AM 75.0 °F - 63.0 °F 66% 30.11 in 10.0 mi North 10.4 mph - N/A   Clear
10:53 AM 78.1 °F - 63.0 °F 60% 30.11 in 10.0 mi North 9.2 mph - N/A   Clear
11:53 AM 81.0 °F 82.5 °F 64.0 °F 56% 30.10 in 10.0 mi North 6.9 mph - N/A   Clear
12:53 PM 82.0 °F 83.1 °F 63.0 °F 52% 30.09 in 10.0 mi North 6.9 mph - N/A   Clear
1:53 PM 82.9 °F 83.3 °F 61.0 °F 47% 30.08 in 10.0 mi NNW 8.1 mph - N/A   Clear
2:53 PM 84.0 °F 84.0 °F 60.1 °F 44% 30.06 in 10.0 mi Variable 3.5 mph - N/A   Clear
3:53 PM 84.0 °F 84.4 °F 61.0 °F 46% 30.05 in 10.0 mi North 4.6 mph - N/A   Clear
4:53 PM 84.0 °F 84.0 °F 60.1 °F 44% 30.04 in 10.0 mi North 3.5 mph - N/A   Clear
5:53 PM 84.0 °F 84.4 °F 61.0 °F 46% 30.03 in 10.0 mi North 3.5 mph - N/A   Clear
6:53 PM 82.0 °F 83.4 °F 64.0 °F 54% 30.03 in 10.0 mi NNE 4.6 mph - N/A   Clear
7:53 PM 77.0 °F - 66.0 °F 69% 30.05 in 10.0 mi North 5.8 mph - N/A   Clear
8:53 PM 73.9 °F - 64.0 °F 71% 30.06 in 10.0 mi Calm Calm - N/A   Clear
9:53 PM 72.0 °F - 63.0 °F 73% 30.06 in 10.0 mi Calm Calm - N/A   Clear
10:53 PM 72.0 °F - 63.0 °F 73% 30.06 in 10.0 mi SE 3.5 mph - N/A   Clear
11:53 PM 66.9 °F - 63.0 °F 87% 30.08 in 10.0 mi Calm Calm - N/A   Clear